This is the latest recevied weather packets stored in our database for station/object W5LND-10. If no packets are shown the sender has not sent any weather packets the latest 10 day(s).
| Time | Temp. | Humidity | Pressure | Rain* | Wind** | Luminosity | Snow |
|---|---|---|---|---|---|---|---|
| 1777572084 | 15° C | 72% | 1011.7 hPa | 0 mm | - | 327 W/m² | - |
| 1777571784 | 15° C | 72% | 1011.7 hPa | 0 mm | - | 279 W/m² | - |
| 1777571484 | 15° C | 72% | 1012.1 hPa | 0 mm | - | 183 W/m² | - |
| 1777571184 | 14.44° C | 72% | 1012.3 hPa | 0 mm | - | 172 W/m² | - |
| 1777570884 | 14.44° C | 72% | 1012.5 hPa | 0 mm | - | 107 W/m² | - |
| 1777570584 | 15° C | 72% | 1012 hPa | 0 mm | - | 135 W/m² | - |
| 1777570284 | 15° C | 72% | 1012.5 hPa | 0 mm | - | 128 W/m² | - |
| 1777569984 | 15° C | 72% | 1012.5 hPa | 0 mm | - | 121 W/m² | - |
| 1777569684 | 15° C | 72% | 1012.8 hPa | 0 mm | - | 86 W/m² | - |
| 1777569384 | 15° C | 72% | 1012.8 hPa | 0 mm | - | 137 W/m² | - |
| 1777569084 | 15° C | 72% | 1012.7 hPa | 0 mm | - | 153 W/m² | - |
| 1777568784 | 15° C | 72% | 1012.7 hPa | 0 mm | - | 165 W/m² | - |
| 1777568484 | 15° C | 72% | 1012.3 hPa | 0 mm | - | 246 W/m² | - |
| 1777568184 | 15° C | 72% | 1012.5 hPa | 0 mm | - | 183 W/m² | - |
| 1777567884 | 15° C | 72% | 1012.2 hPa | 0 mm | - | 218 W/m² | - |
| 1777567584 | 15° C | 73% | 1011.5 hPa | 0 mm | - | 450 W/m² | - |
| 1777567284 | 15° C | 74% | 1011.5 hPa | 0 mm | - | 526 W/m² | - |
| 1777566984 | 14.44° C | 75% | 1012 hPa | 0 mm | - | 399 W/m² | - |
| 1777566684 | 14.44° C | 75% | 1011.7 hPa | 0 mm | - | 385 W/m² | - |
| 1777566384 | 14.44° C | 76% | 1012.1 hPa | 0 mm | - | 225 W/m² | - |
| 1777566084 | 13.89° C | 77% | 1011.9 hPa | 0 mm | - | 302 W/m² | - |
| 1777565784 | 13.89° C | 77% | 1012 hPa | 0 mm | - | 274 W/m² | - |
| 1777565484 | 13.89° C | 77% | 1012.3 hPa | 0 mm | - | 227 W/m² | - |
| 1777565184 | 13.89° C | 78% | 1012.2 hPa | 0 mm | - | 197 W/m² | - |
| 1777564884 | 13.89° C | 79% | 1012 hPa | 0 mm | - | 155 W/m² | - |
* Rain latest hour (hover to see other rain measurements)
** Current wind speed in m/s (hover to see current wind gust speed)